Location: Newark
(39.0622°N, 106.5590°E)
Time: 18:55:06
(UTC+00:00)

Vanguard 2 Rocket - Pass Details

Date: 26 January 2020
Orbit: 554 x 3326 km, 32.9° (Epoch: 16 February)

Event Time Altitude Azimuth Distance (km) Brightness Sun altitude
Rises 02:30:32 0° 269° (W) 3,744 9.7 21.6°
Reaches altitude 10° 02:33:00 10° 260° (W) 3,068 9.4 21.9°
Maximum altitude 02:39:55 34° 198° (SSW) 2,442 9.8 22.7°
Drops below altitude 10° 02:51:07 10° 140° (SE) 5,002 12.7 24.0°
Sets 02:56:28 0° 133° (SE) 6,453 12.5 24.6°
